Location: Dead Woman Crossing
(43.5369°N, 106.3228°W)
Time: 10:40:09
(UTC+00:00)

ITUPSAT 1 - Pass Details

Date: 28 June 2022
Orbit: 701 x 711 km, 98.6° (Epoch: 13 August)

Event Time Altitude Azimuth Distance (km) Brightness Sun altitude
Rises 03:48:41 0° 10° (N) 3,108 ? -9.0°
Reaches altitude 10° 03:50:57 10° 8° (N) 2,187 ? -9.3°
Maximum altitude 03:55:42 66° 288° (WNW) 773 ? -9.9°
Drops below altitude 10° 04:00:26 10° 206° (SSW) 2,177 ? -10.5°
Sets 04:02:41 0° 203° (SSW) 3,093 ? -10.7°
